GW4947 Weather Reports


time (UTC)temp
C
wind
direction
speed
KPH
gust
KPH
rain 1hr
cm
rain 24hr
cm
rain mn
cm
humidity
%
barometer
mb
20260505000322 25 65 3.2 3.2 0.00 0.00 0.15 83 1007.0
20260504235822 25 90 1.6 3.2 0.00 0.00 0.15 83 1007.0
20260504235322 25 92 1.6 3.2 0.00 0.00 0.15 84 1007.0
20260504234823 24 130 1.6 1.6 0.00 0.00 0.15 85 1007.0
20260504234322 24 224 1.6 1.6 0.00 0.00 0.15 86 1007.0
20260504233822 24 272 3.2 3.2 0.00 0.00 0.15 86 1007.0
20260504233323 24 98 3.2 3.2 0.00 0.00 0.15 87 1007.0
20260504232822 24 95 3.2 3.2 0.00 0.00 0.15 88 1007.0
20260504232323 23 349 3.2 3.2 0.00 0.00 0.15 89 1007.0
20260504231822 23 332 4.8 4.8 0.00 0.00 0.15 90 1007.0
20260504231324 23 84 3.2 3.2 0.00 0.00 0.15 90 1007.0
20260504230822 23 110 4.8 4.8 0.00 0.00 0.15 90 1007.0
20260504230323 23 95 3.2 3.2 0.00 0.00 0.15 90 1007.0
20260504225822 23 43 1.6 3.2 0.00 0.00 0.15 90 1007.0
20260504225323 23 80 1.6 1.6 0.00 0.00 0.15 89 1007.0
20260504224823 23 85 1.6 1.6 0.00 0.00 0.15 89 1007.0
20260504224327 23 116 1.6 1.6 0.00 0.00 0.15 89 1007.0
20260504223822 23 143 1.6 1.6 0.00 0.00 0.15 88 1007.0
20260504223322 23 121 0.0 1.6 0.00 0.00 0.15 88 1007.0
20260504222822 23 130 0.0 0.0 0.00 0.00 0.15 88 1007.0
20260504222322 24 140 1.6 1.6 0.00 0.00 0.15 88 1007.0
20260504221822 24 154 1.6 1.6 0.00 0.00 0.15 89 1007.0
20260504221322 24 161 1.6 1.6 0.00 0.00 0.15 90 1007.0
20260504220823 23 88 1.6 1.6 0.00 0.00 0.15 90 1007.0
20260504220322 23 128 0.0 0.0 0.00 0.00 0.15 90 1007.0
20260504215822 23 127 0.0 0.0 0.00 0.00 0.15 90 1007.0
20260504215324 23 121 0.0 0.0 0.00 0.00 0.15 90 1007.0
20260504214822 23 119 0.0 0.0 0.00 0.00 0.15 90 1007.0
20260504214323 23 147 1.6 3.2 0.00 0.00 0.15 90 1007.0
20260504213822 23 152 1.6 3.2 0.00 0.00 0.15 90 1007.0
20260504213322 23 129 0.0 0.0 0.00 0.00 0.15 91 1007.0
20260504212823 23 134 1.6 1.6 0.00 0.00 0.15 90 1007.0
20260504212322 23 119 0.0 0.0 0.00 0.00 0.15 90 1007.0
20260504211823 23 136 1.6 1.6 0.00 0.00 0.15 90 1007.0
20260504211322 23 124 0.0 0.0 0.18 0.00 0.15 89 1007.0
20260504210822 23 114 0.0 1.6 0.18 0.00 0.15 90 1007.0
20260504210322 23 129 0.0 1.6 0.00 0.00 0.13 90 1007.0
20260504205822 23 354 1.6 3.2 0.13 0.00 0.13 90 1008.0
20260504205322 23 287 3.2 3.2 0.30 0.00 0.13 90 1008.0
20260504204824 23 149 4.8 4.8 0.18 0.00 0.10 90 1008.0
20260504204322 23 116 0.0 1.6 0.18 0.00 0.10 90 1008.0
20260504203822 23 176 1.6 3.2 0.00 0.00 0.08 90 1008.0
20260504203322 23 279 3.2 3.2 0.13 0.00 0.08 89 1008.0
20260504202822 23 178 1.6 3.2 0.13 0.00 0.08 89 1008.0
20260504202324 23 135 1.6 1.6 0.00 0.00 0.05 89 1009.0
20260504201822 23 173 1.6 1.6 0.00 0.00 0.05 89 1008.0
20260504201322 23 186 1.6 3.2 0.00 0.00 0.05 89 1008.0
20260504200825 23 105 1.6 3.2 0.00 0.00 0.05 88 1008.0
20260504200322 23 130 1.6 1.6 0.00 0.00 0.05 88 1008.0
20260504195822 23 107 1.6 1.6 0.00 0.00 0.05 88 1008.0
20260504195323 23 72 1.6 3.2 0.00 0.00 0.05 88 1008.0
20260504194822 23 159 1.6 3.2 0.00 0.00 0.05 88 1008.0
20260504194324 23 122 1.6 1.6 0.18 0.00 0.05 88 1009.0
20260504193824 23 128 1.6 1.6 0.18 0.00 0.05 87 1009.0
20260504193323 23 139 1.6 3.2 0.00 0.00 0.03 87 1009.0
20260504192822 23 358 3.2 3.2 0.00 0.00 0.03 86 1009.0
20260504192323 23 33 1.6 3.2 0.00 0.00 0.03 86 1009.0
20260504191824 23 118 1.6 1.6 0.00 0.00 0.03 86 1009.0
20260504190835 24 136 3.2 3.2 0.13 0.00 0.03 85 1009.0
20260504190322 25 163 1.6 1.6 0.13 0.00 0.03 83 1009.0
20260504185824 25 119 1.6 3.2 0.00 0.00 0.00 82 1009.0
20260504185322 24 92 3.2 3.2 0.00 0.00 0.00 83 1009.0
20260504184822 24 109 1.6 1.6 0.00 0.00 0.00 82 1009.0
20260504184322 25 49 4.8 4.8 0.00 0.00 0.00 81 1009.0
20260504183822 25 261 8.0 9.7 0.00 0.00 0.00 80 1010.0
20260504183323 25 338 8.0 11.3 0.00 0.00 0.00 80 1010.0
20260504182822 25 307 4.8 8.0 0.00 0.00 0.00 81 1009.0
20260504182331 25 352 6.4 8.0 0.00 0.00 0.00 81 1009.0
20260504181823 25 54 3.2 4.8 0.00 0.00 0.00 82 1009.0
20260504181323 25 354 3.2 4.8 0.00 0.00 0.00 81 1009.0
20260504180825 25 56 4.8 4.8 0.00 0.00 0.00 81 1009.0
20260504180324 25 340 6.4 9.7 0.00 0.00 0.00 82 1009.0
20260504175822 24 3 9.7 12.9 0.00 0.00 0.00 83 1009.0
20260504175324 24 41 4.8 4.8 0.00 0.00 0.00 85 1009.0
20260504174823 24 16 4.8 4.8 0.00 0.00 0.00 85 1009.0
20260504174322 25 352 6.4 9.7 0.00 0.00 0.00 83 1009.0
20260504173822 25 283 4.8 4.8 0.00 0.00 0.00 82 1009.0
20260504173322 25 96 3.2 4.8 0.00 0.00 0.00 81 1009.0
20260504172823 25 245 8.0 11.3 0.00 0.00 0.00 78 1009.0
20260504172325 25 330 11.3 14.5 0.00 0.00 0.00 76 1009.0
20260504171823 25 3 6.4 8.0 0.00 0.00 0.00 78 1009.0
20260504171322 26 14 8.0 9.7 0.00 0.00 0.00 74 1009.0
20260504170824 26 171 4.8 8.0 0.00 0.00 0.00 74 1009.0
20260504170322 26 315 8.0 11.3 0.00 0.00 0.00 75 1009.0
20260504160322 30 136 1.6 1.6 0.00 0.00 0.00 78 1008.0
20260504150822 31 159 1.6 4.8 0.00 0.00 0.00 77 1007.0
20260504150322 31 137 3.2 3.2 0.00 0.00 0.00 77 1007.0
20260504141324 31 125 3.2 3.2 0.00 0.00 0.00 72 1007.0
20260504140825 31 138 1.6 3.2 0.00 0.00 0.00 71 1006.0
20260504140324 31 126 4.8 8.0 0.00 0.00 0.00 71 1006.0
20260504130325 33 112 1.6 1.6 0.00 0.00 0.00 61 1005.0
20260504110323 36 90 6.4 9.7 0.00 0.00 0.00 57 1003.0
20260504100322 36 133 1.6 1.6 0.00 0.00 0.00 52 1004.0
20260504081824 38 44 3.2 3.2 0.00 0.00 0.00 49 1006.0
20260504081322 37 127 1.6 1.6 0.00 0.00 0.00 50 1006.0
20260504080822 37 68 1.6 1.6 0.00 0.00 0.00 49 1006.0
20260504080323 37 89 1.6 1.6 0.00 0.00 0.00 50 1006.0
20260504070324 36 220 3.2 3.2 0.00 0.00 0.00 52 1007.0
20260504050322 34 151 3.2 4.8 0.00 0.00 0.00 55 1009.0
20260504045822 33 135 1.6 1.6 0.00 0.00 0.00 54 1009.0
20260504045322 33 65 1.6 3.2 0.00 0.00 0.00 55 1009.0
20260504044822 33 119 1.6 1.6 0.00 0.00 0.00 54 1009.0
20260504044322 33 121 1.6 1.6 0.00 0.00 0.00 55 1009.0
20260504043822 33 94 1.6 1.6 0.00 0.00 0.00 56 1009.0
20260504043322 33 139 1.6 1.6 0.00 0.00 0.00 55 1009.0
20260504042822 33 69 3.2 3.2 0.00 0.00 0.00 56 1009.0
20260504042322 32 329 3.2 3.2 0.00 0.00 0.00 56 1009.0
20260504041822 32 30 4.8 4.8 0.00 0.00 0.00 57 1009.0
20260504041322 32 136 1.6 1.6 0.00 0.00 0.00 57 1009.0
20260504040822 32 269 1.6 3.2 0.00 0.00 0.00 58 1009.0
20260504040323 32 54 1.6 3.2 0.00 0.00 0.00 57 1009.0
20260504035823 32 103 1.6 1.6 0.00 0.00 0.00 60 1009.0
20260504035322 32 68 3.2 4.8 0.00 0.00 0.00 59 1009.0
20260504034822 31 133 1.6 1.6 0.00 0.00 0.00 61 1009.0
20260504034322 31 125 3.2 4.8 0.00 0.00 0.00 60 1009.0
20260504033822 31 140 0.0 0.0 0.00 0.00 0.00 60 1009.0
20260504033323 31 149 3.2 3.2 0.00 0.00 0.00 61 1009.0
20260504032823 31 123 1.6 1.6 0.00 0.00 0.00 63 1009.0
20260504032323 31 192 3.2 4.8 0.00 0.00 0.00 62 1009.0
20260504031822 31 193 4.8 4.8 0.00 0.00 0.00 62 1009.0
20260504031322 30 88 1.6 3.2 0.00 0.00 0.00 63 1009.0
20260504030823 30 123 0.0 0.0 0.00 0.00 0.00 63 1009.0
20260504030323 30 93 1.6 1.6 0.00 0.00 0.00 63 1009.0
20260504025823 30 126 0.0 1.6 0.00 0.00 0.00 63 1009.0
20260504025322 30 125 0.0 0.0 0.00 0.00 0.00 64 1009.0
20260504024823 30 125 1.6 1.6 0.00 0.00 0.00 64 1009.0
20260504024322 29 117 0.0 1.6 0.00 0.00 0.00 65 1008.0
20260504023822 29 166 1.6 1.6 0.00 0.00 0.00 65 1009.0
20260504023322 28 31 1.6 1.6 0.00 0.00 0.00 66 1008.0
20260504022822 29 115 1.6 3.2 0.00 0.00 0.00 67 1008.0
20260504022322 29 209 3.2 3.2 0.00 0.00 0.00 66 1008.0
20260504021823 29 126 0.0 0.0 0.00 0.00 0.00 66 1008.0
20260504021322 28 127 0.0 0.0 0.00 0.00 0.00 68 1008.0
20260504020822 28 136 1.6 3.2 0.00 0.00 0.00 69 1008.0
20260504020323 28 126 0.0 1.6 0.00 0.00 0.00 68 1008.0
20260504015822 28 121 0.0 0.0 0.00 0.00 0.00 68 1008.0
20260504015322 28 130 1.6 1.6 0.00 0.00 0.00 68 1008.0
20260504014822 27 124 0.0 0.0 0.00 0.00 0.00 69 1008.0
20260504014323 27 133 0.0 0.0 0.00 0.00 0.00 70 1008.0
20260504013823 27 125 0.0 1.6 0.00 0.00 0.00 72 1007.0
20260504013323 27 126 0.0 0.0 0.00 0.00 0.00 74 1007.0
20260504012822 27 119 0.0 0.0 0.00 0.00 0.00 74 1008.0
20260504012322 27 119 0.0 0.0 0.00 0.00 0.00 75 1007.0
20260504011822 26 114 0.0 0.0 0.00 0.00 0.00 76 1007.0
20260504011322 26 108 0.0 1.6 0.00 0.00 0.00 77 1007.0
20260504010824 26 119 0.0 0.0 0.00 0.00 0.00 78 1007.0
20260504010323 26 105 0.0 0.0 0.00 0.00 0.00 79 1007.0
20260504005823 26 106 1.6 1.6 0.00 0.00 0.00 79 1007.0
20260504005324 25 117 0.0 0.0 0.00 0.00 0.00 80 1007.0
20260504004822 25 123 0.0 0.0 0.00 0.00 0.00 80 1007.0
20260504004322 25 123 0.0 0.0 0.00 0.00 0.00 80 1007.0
20260504003822 26 125 0.0 1.6 0.00 0.00 0.00 79 1007.0
20260504003323 26 132 1.6 1.6 0.00 0.00 0.00 78 1007.0
20260504002822 26 109 1.6 1.6 0.00 0.00 0.00 76 1007.0
20260504002323 26 119 0.0 0.0 0.00 0.00 0.00 76 1007.0
20260504001823 26 117 0.0 1.6 0.00 0.00 0.00 75 1007.0
20260504001322 26 95 0.0 0.0 0.00 0.00 0.00 75 1007.0
20260504000823 26 122 0.0 0.0 0.00 0.00 0.00 73 1007.0